Newark, NJ

8:41 AM EDT on October 16, 2019 (GMT -0400)
Newark International

Weather History for KEWR - May, 2019

Change the Weather History Date:

Monday, May 6, 2019

  Actual Average Record
Temperature  
Mean Temperature 62 °F 60 °F  
Max Temperature 72 °F 69 °F 93 °F (1949)
Min Temperature 52 °F 50 °F 40 °F (1967)
Degree Days  
Heating Degree Days 3 6  
Month to date heating degree days 39 42  
Since 1 July heating degree days 4633 4762  
Cooling Degree Days 0 1  
Month to date cooling degree days 0 6  
Year to date cooling degree days 15 18  
Growing Degree Days 12 (Base 50)    
Moisture  
Dew Point 48 °F    
Average Humidity 68    
Maximum Humidity 89    
Minimum Humidity 47    
Precipitation  
Precipitation 0.00 in 0.13 in 1.70 in (1991)
Month to date precipitation 1.76 0.74  
Year to date precipitation 17.41 15.54  
Snow  
Snow 0.00 in 0.00 in T in (1994)
Month to date snowfall 0.0 0.0  
Since 1 July snowfall 22.0 28.5  
Snow Depth 0.00 in    
Sea Level Pressure  
Sea Level Pressure 29.96 in    
Wind  
Wind Speed 8 mph (ENE)    
Max Wind Speed 18 mph    
Max Gust Speed 24 mph    
Visibility 10 miles    
Events Rain    
T = Trace of Precipitation, MM = Missing Value Source: NWS Daily Summary

Daily Weather History Graph

Daily Weather History Graph

Search for Another Location

Airport or City:

Astronomy

May. 06, 2019 Rise Set
Actual Time 5:49 AM EDT 7:57 PM EDT
Civil Twilight 5:19 AM EDT 8:27 PM EDT
Nautical Twilight 4:42 AM EDT 9:05 PM EDT
Astronomical Twilight 4:02 AM EDT 9:45 PM EDT
Moon 7:09 AM EDT (5/6) 9:52 PM EDT (5/6)
Length of Visible Light 15h 08m
Length of Day
14h 08m
Waxing Crescent, 3% of the Moon is Illuminated
May 6
Waxing Crescent
May 11
First Quarter
May 18
Full
May 26
Last Quarter
Jun 3
New

Hourly Weather History & Observations

Time (EDT) Temp. Dew Point Humidity Pressure Visibility Wind Dir Wind Speed Gust Speed Precip Events Conditions
12:04 AM 53.1 °F 51.1 °F 93% 29.82 in 10.0 mi NE 12.7 mph - 0.00 in Rain Light Rain
12:51 AM 53.1 °F 50.0 °F 89% 29.84 in 10.0 mi NE 13.8 mph 21.9 mph 0.01 in   Overcast
1:31 AM 53.1 °F 48.9 °F 86% 29.85 in 10.0 mi NNE 11.5 mph - N/A   Overcast
1:51 AM 53.1 °F 48.0 °F 83% 29.86 in 10.0 mi NE 15.0 mph 21.9 mph N/A   Overcast
2:51 AM 53.1 °F 48.9 °F 86% 29.86 in 10.0 mi North 10.4 mph - N/A   Mostly Cloudy
3:13 AM 52.0 °F 48.9 °F 89% 29.85 in 10.0 mi NNE 9.2 mph - N/A   Mostly Cloudy
3:51 AM 52.0 °F 48.9 °F 89% 29.86 in 10.0 mi North 8.1 mph - N/A   Overcast
4:51 AM 53.1 °F 48.9 °F 86% 29.87 in 10.0 mi North 9.2 mph - N/A   Mostly Cloudy
5:51 AM 52.0 °F 48.0 °F 86% 29.90 in 10.0 mi North 6.9 mph - N/A   Mostly Cloudy
6:51 AM 53.1 °F 48.0 °F 83% 29.94 in 10.0 mi NW 6.9 mph - N/A   Scattered Clouds
7:51 AM 55.9 °F 46.0 °F 69% 29.95 in 10.0 mi North 12.7 mph - N/A   Mostly Cloudy
8:51 AM 60.1 °F 46.9 °F 62% 29.96 in 10.0 mi NNE 13.8 mph - N/A   Scattered Clouds
9:51 AM 61.0 °F 46.0 °F 58% 29.96 in 10.0 mi NE 8.1 mph - N/A   Partly Cloudy
10:51 AM 64.9 °F 46.0 °F 50% 29.99 in 10.0 mi NNE 8.1 mph - N/A   Scattered Clouds
11:51 AM 66.9 °F 46.9 °F 49% 29.99 in 10.0 mi ESE 5.8 mph - N/A   Scattered Clouds
12:51 PM 68.0 °F 48.0 °F 49% 29.98 in 10.0 mi Variable 5.8 mph - N/A   Scattered Clouds
1:51 PM 70.0 °F 48.0 °F 46% 29.97 in 10.0 mi Variable 3.5 mph - N/A   Mostly Cloudy
2:51 PM 72.0 °F 50.0 °F 46% 29.97 in 10.0 mi ESE 5.8 mph - N/A   Mostly Cloudy
3:51 PM 66.0 °F 48.0 °F 52% 29.98 in 10.0 mi ESE 10.4 mph - N/A   Mostly Cloudy
4:51 PM 62.1 °F 46.0 °F 56% 30.01 in 10.0 mi SE 8.1 mph - N/A   Overcast
5:51 PM 60.1 °F 48.0 °F 64% 30.03 in 10.0 mi SSE 5.8 mph - N/A   Mostly Cloudy
6:51 PM 60.1 °F 46.0 °F 60% 30.04 in 10.0 mi South 6.9 mph - N/A   Mostly Cloudy
7:51 PM 59.0 °F 46.9 °F 64% 30.06 in 10.0 mi SSE 8.1 mph - N/A   Mostly Cloudy
8:51 PM 59.0 °F 46.9 °F 64% 30.09 in 10.0 mi SSE 5.8 mph - N/A   Mostly Cloudy
9:51 PM 57.9 °F 46.9 °F 67% 30.12 in 10.0 mi SSE 6.9 mph - N/A   Scattered Clouds
10:51 PM 57.9 °F 46.9 °F 67% 30.12 in 10.0 mi South 5.8 mph - N/A   Mostly Cloudy
11:51 PM 57.9 °F 46.9 °F 67% 30.14 in 10.0 mi SSE 4.6 mph - N/A   Mostly Cloudy